Overview Statistics Trail Chart Weather Telemetry Raw packets
 

This is the latest recevied weather packets stored in our database for station/object KG5APU. If no packets are shown the sender has not sent any weather packets the latest 10 day(s).

<< 45 46 47 48 49 50 51 >>
Time Temp. Humidity Pressure Rain* Wind** Luminosity Snow
1787941929 37.22° C 42% 1018.2 hPa 0 mm - 805 W/m² -
1787941328 37.22° C 45% 1018.1 hPa 0 mm - 787 W/m² -
1787940727 37.78° C 43% 1018.4 hPa 0 mm - 779 W/m² -
1787940126 37.22° C 44% 1018.5 hPa 0 mm - 773 W/m² -
1787939525 36.67° C 47% 1018.8 hPa 0 mm - 772 W/m² -
1787938920 36.11° C 48% 1018.8 hPa 0 mm - 762 W/m² -
1787938316 35.56° C 47% 1019.1 hPa 0 mm - 753 W/m² -
1787937712 35.56° C 49% 1019.2 hPa 0 mm - 742 W/m² -
1787937110 35.56° C 51% 1019.3 hPa 0 mm - 729 W/m² -
1787936511 35° C 51% 1019.1 hPa 0 mm - 715 W/m² -
1787935905 35° C 53% 1019.2 hPa 0 mm - 697 W/m² -
1787935303 35° C 54% 1019.3 hPa 0 mm - 680 W/m² -
1787934698 34.44° C 56% 1019.5 hPa 0 mm - 656 W/m² -
1787934097 33.89° C 56% 1019.4 hPa 0 mm - 632 W/m² -
1787933491 33.33° C 59% 1019.6 hPa 0 mm - 602 W/m² -
1787932887 33.33° C 59% 1019.5 hPa 0 mm - 575 W/m² -
1787932285 33.33° C 60% 1019.4 hPa 0 mm - 550 W/m² -
1787931685 32.78° C 62% 1019.2 hPa 0 mm - 521 W/m² -
1787931081 32.78° C 60% 1019.3 hPa 0 mm - 491 W/m² -
1787930480 32.22° C 60% 1019.4 hPa 0 mm - 460 W/m² -
1787929880 31.67° C 63% 1019.2 hPa 0 mm - 201 W/m² -
1787929280 31.67° C 66% 1018.9 hPa 0 mm - 387 W/m² -
1787928679 31.67° C 65% 1019.1 hPa 0 mm - 366 W/m² -
1787928076 31.67° C 65% 1019.1 hPa 0 mm - 332 W/m² -
1787927475 30.56° C 68% 1019.3 hPa 0 mm - 306 W/m² -

* Rain latest hour (hover to see other rain measurements)
** Current wind speed in m/s (hover to see current wind gust speed)